Home   Weather   Amsterdam   Past weeks

Flag for Netherlands Past Weather in Amsterdam, Netherlands — Yesterday and Last 2 Weeks

Now
27 °F

Fog.


Feels Like: 23 °F
Forecast: 27 / 37 °F
Wind: 3 mph from East

Location: Amsterdam Schiphol Airport

Current Time: Jan 19, 2017 at 7:59:08 am

Latest Report: Jan 19, 2017 at 6:55 am


Visibility: 4 mi

Pressure: 30.66 "Hg

Humidity: 93%

Dew Point: 25 °F

Location of AmsterdamLocation

Past Weather in Amsterdam — Graph

°F

Amsterdam Temperature Yesterday

Maximum temperature yesterday: 28 °F (at 2:25 pm)
Minimum temperature yesterday: 21 °F (at 1:25 am)
Average temperature yesterday: 26 °F

High & Low Weather Summary for the Past Weeks

 TemperatureHumidityPressure
High50 °F (Jan 11, 11:55 am)100% (Jan 7, 4:25 am)30.74 "Hg (Jan 7, 4:25 am)
Low21 °F (Jan 6, 8:25 am)56% (Jan 5, 2:25 pm)29.09 "Hg (Jan 12, 11:25 pm)
Average36 °F87%30.17 "Hg
* Reported Jan 4 6:25 am — Jan 19 6:55 am, Amsterdam, Weather by CustomWeather, © 2017

Note: Actual official high and low records may vary slightly from our data, if they occured in-between our weather recording intervals... More about our weather records

Advertising

Amsterdam Weather History for the Previous 24 Hours

Scroll right to see more
 ConditionsComfort  
Time TempWeatherWind HumidityBarometerVisibility
6:55 am
Thu, Jan 19
27 °FFog.3 mph93%30.66 "Hg4 mi
6:25 am23 °FLight fog.3 mph93%30.66 "Hg4 mi
5:55 am25 °FLight fog.2 mph93%30.66 "Hg4 mi
5:25 am21 °FLight fog.2 mph100%30.66 "Hg4 mi
4:55 am23 °FCold.1 mph100%30.66 "Hg3 mi
4:25 am23 °FIce fog.1 mph93%30.66 "Hg3 mi
3:55 am25 °FIce fog.1 mph93%30.66 "Hg3 mi
3:25 am25 °FIce fog.1 mph100%30.66 "Hg2 mi
2:55 am25 °FIce fog.2 mph93%30.66 "Hg2 mi
2:25 am25 °FIce fog.2 mph100%30.66 "Hg2 mi
1:55 am25 °FIce fog.2 mph93%30.66 "Hg2 mi
1:25 am27 °FIce fog.3 mph93%30.66 "Hg2 mi
12:55 am28 °FIce fog.2 mph93%30.66 "Hg2 mi
12:25 am28 °FIce fog.2 mph93%30.69 "Hg2 mi
11:55 pm
Wed, Jan 18
28 °FIce fog.2 mph93%30.69 "Hg2 mi
11:25 pm28 °FIce fog.3 mph93%30.69 "Hg3 mi
10:55 pm28 °FIce fog.2 mph93%30.69 "Hg2 mi
10:25 pm28 °FIce fog.1 mph93%30.69 "Hg2 mi
9:55 pm28 °FIce fog.1 mph100%30.69 "Hg2 mi
9:25 pm28 °FIce fog.1 mph100%30.69 "Hg2 mi
8:55 pm28 °FIce fog.1 mph100%30.69 "Hg2 mi
8:25 pm28 °FIce fog.1 mph100%30.69 "Hg2 mi
7:55 pm28 °FIce fog.2 mph93%30.69 "Hg2 mi
7:25 pm28 °FIce fog.1 mph93%30.69 "Hg2 mi
6:55 pm28 °FIce fog.1 mph93%30.69 "Hg2 mi
6:25 pm28 °FIce fog.3 mph93%30.69 "Hg2 mi
5:55 pm28 °FIce fog.2 mph93%30.69 "Hg2 mi
5:25 pm28 °FIce fog.3 mph100%30.69 "Hg2 mi
4:55 pm28 °FIce fog.2 mph100%30.69 "Hg2 mi
4:25 pm28 °FIce fog.1 mph100%30.69 "Hg2 mi
3:55 pm28 °FIce fog.2 mph100%30.69 "Hg2 mi
3:25 pm28 °FIce fog.2 mph100%30.69 "Hg2 mi
2:55 pm28 °FIce fog.3 mph93%30.69 "Hg2 mi
2:25 pm28 °FIce fog.3 mph93%30.69 "Hg2 mi
1:55 pm27 °FIce fog.2 mph100%30.72 "Hg1 mi
1:25 pm27 °FIce fog.2 mph100%30.72 "Hg1 mi
12:55 pm27 °FIce fog.5 mph93%30.72 "Hg1 mi
12:25 pm25 °FSnow flurries. Ice fog.3 mph100%30.72 "Hg1 mi
11:55 am25 °FSnow flurries. Ice fog.5 mph100%30.72 "Hg1 mi
11:25 am25 °FSnow flurries. Ice fog.3 mph93%30.74 "Hg1 mi
10:55 am25 °FSnow flurries. Ice fog.3 mph93%30.72 "Hg1 mi
10:25 am25 °FSnow flurries. Ice fog.5 mph93%30.72 "Hg1 mi
9:55 am23 °FSnow flurries. Ice fog.5 mph100%30.72 "Hg1 mi
9:25 am23 °FSnow flurries. Ice fog.5 mph100%30.72 "Hg1 mi
8:55 am23 °FSnow flurries. Ice fog.5 mph93%30.72 "Hg1 mi
8:25 am23 °FSnow flurries. Ice fog.3 mph93%30.72 "Hg1 mi
7:55 am23 °FSnow flurries. Ice fog.6 mph93%30.69 "Hg1 mi
7:25 am23 °FSnow flurries. Ice fog.3 mph93%30.69 "Hg1 mi
Weather by CustomWeather, © 2017

See weather overviewHow to use our weather pages